Terminal Aerodrome Forecast
Issued by NWS

Home | Current Version | Previous Version | Text Only | Print | Product List | Glossary On
Versions: 1 2 3 4 5 6 7 8 9 10 11 12
000
FTUS45 KRIW 242320
TAFPNA
TAF
KPNA 242320Z 2500/2524 27016G24KT P6SM VCTS SCT050 BKN080CB
     FM250200 29014KT P6SM VCSH SCT060 BKN090
     FM250900 29009KT P6SM SCT090
     FM251800 30012G18KT P6SM BKN080
      AMD LTD TO CLD VIS AND WIND=

USA.gov is the U.S. government's official web portal to all federal, state and local government web resources and services.